This is the latest recevied weather packets stored in our database for station/object KB1ZFK. If no packets are shown the sender has not sent any weather packets the latest 10 day(s).
| Time | Temp. | Humidity | Pressure | Rain* | Wind** | Luminosity | Snow |
|---|---|---|---|---|---|---|---|
| 1778163637 | 12.22° C | 66% | 1007.3 hPa | 0 mm | - | 149 W/m² | - |
| 1778163333 | 11.67° C | 68% | 1007.4 hPa | 0 mm | - | 148 W/m² | - |
| 1778163030 | 12.78° C | 69% | 1007.2 hPa | 0 mm | - | 246 W/m² | - |
| 1778162727 | 12.78° C | 65% | 1007.3 hPa | 0 mm | - | 754 W/m² | - |
| 1778162424 | 12.78° C | 67% | 1007.6 hPa | 0 mm | - | 737 W/m² | - |
| 1778162121 | 11.67° C | 68% | 1007.3 hPa | 0 mm | - | 630 W/m² | - |
| 1778161818 | 12.22° C | 68% | 1007.5 hPa | 0 mm | - | 186 W/m² | - |
| 1778161515 | 11.67° C | 73% | 1007.7 hPa | 0 mm | - | 619 W/m² | - |
| 1778161210 | 11.67° C | 70% | 1007.5 hPa | 0 mm | - | 575 W/m² | - |
| 1778160906 | 11.11° C | 73% | 1007.6 hPa | 0 mm | - | 340 W/m² | - |
| 1778160605 | 11.11° C | 72% | 1007.5 hPa | 0 mm | - | 564 W/m² | - |
| 1778160301 | 12.22° C | 70% | 1007.4 hPa | 0 mm | - | 318 W/m² | - |
| 1778159997 | 11.67° C | 70% | 1007.6 hPa | 0 mm | - | 553 W/m² | - |
| 1778159694 | 11.67° C | 71% | 1007.7 hPa | 0 mm | - | 497 W/m² | - |
| 1778159391 | 11.67° C | 73% | 1007.7 hPa | 0 mm | - | 478 W/m² | - |
| 1778159088 | 11.67° C | 75% | 1007.5 hPa | 0 mm | - | 442 W/m² | - |
| 1778158787 | 11.67° C | 73% | 1007.8 hPa | 0 mm | - | 406 W/m² | - |
| 1778158485 | 11.11° C | 75% | 1007.7 hPa | 0 mm | - | 390 W/m² | - |
| 1778158182 | 11.11° C | 75% | 1007.7 hPa | 0 mm | - | 373 W/m² | - |
| 1778157878 | 11.11° C | 78% | 1007.7 hPa | 0 mm | - | 361 W/m² | - |
| 1778157576 | 10.56° C | 77% | 1007.4 hPa | 0 mm | - | 347 W/m² | - |
| 1778157273 | 10.56° C | 81% | 1007.8 hPa | 0 mm | - | 340 W/m² | - |
| 1778156970 | 10.56° C | 79% | 1007.5 hPa | 0 mm | - | 305 W/m² | - |
| 1778156665 | 10° C | 81% | 1007.7 hPa | 0 mm | - | 297 W/m² | - |
| 1778156361 | 10° C | 81% | 1007.7 hPa | 0 mm | - | 256 W/m² | - |
* Rain latest hour (hover to see other rain measurements)
** Current wind speed in m/s (hover to see current wind gust speed)